| time (UTC) | temp F | wind direction | speed MPH | gust MPH | rain 1hr in | rain 24hr in | rain mn in | humidity % | barometer mb |
| 20260508135005 | 51 | 45 | 3.0 | 8.0 | 0.00 | 0.00 | 0.02 | 69 | 1004.3 |
| 20260508134453 | 51 | 45 | 2.0 | 7.0 | 0.00 | 0.00 | 0.02 | 71 | 1004.3 |
| 20260508133946 | 50 | 23 | 1.0 | 4.0 | 0.00 | 0.00 | 0.02 | 72 | 1004.4 |
| 20260508133434 | 50 | 23 | 2.0 | 6.0 | 0.00 | 0.00 | 0.02 | 72 | 1004.4 |
| 20260508132928 | 50 | 68 | 1.0 | 6.0 | 0.00 | 0.00 | 0.02 | 73 | 1004.8 |
| 20260508132412 | 50 | 68 | 2.0 | 6.0 | 0.00 | 0.00 | 0.02 | 73 | 1004.6 |
| 20260508131902 | 50 | 23 | 2.0 | 7.0 | 0.00 | 0.00 | 0.02 | 73 | 1004.4 |
| 20260508131352 | 50 | 68 | 2.0 | 7.0 | 0.00 | 0.00 | 0.02 | 73 | 1004.4 |
| 20260508125821 | 49 | 90 | 2.0 | 6.0 | 0.00 | 0.00 | 0.02 | 75 | 1004.1 |
| 20260508124801 | 49 | 203 | 1.0 | 4.0 | 0.00 | 0.00 | 0.02 | 75 | 1004.1 |
| 20260508124251 | 49 | 45 | 2.0 | 4.0 | 0.00 | 0.00 | 0.02 | 76 | 1004.0 |
| 20260508123743 | 49 | 113 | 2.0 | 4.0 | 0.00 | 0.00 | 0.02 | 76 | 1004.0 |
| 20260508123236 | 49 | 68 | 1.0 | 7.0 | 0.00 | 0.00 | 0.02 | 77 | 1003.9 |
| 20260508121701 | 48 | 90 | 2.0 | 8.0 | 0.00 | 0.00 | 0.02 | 79 | 1003.8 |
| 20260508121152 | 48 | 0 | 1.0 | 6.0 | 0.00 | 0.00 | 0.02 | 79 | 1003.7 |
| 20260508120640 | 48 | 45 | 2.0 | 4.0 | 0.00 | 0.00 | 0.02 | 80 | 1003.5 |
| 20260508120131 | 48 | 90 | 3.0 | 4.0 | 0.00 | 0.00 | 0.02 | 80 | 1003.2 |
| 20260508115619 | 48 | 23 | 2.0 | 6.0 | 0.00 | 0.00 | 0.02 | 81 | 1003.2 |
| 20260508115112 | 48 | 68 | 2.0 | 6.0 | 0.00 | 0.00 | 0.02 | 81 | 1003.2 |
| 20260508114600 | 48 | 45 | 2.0 | 6.0 | 0.00 | 0.00 | 0.02 | 82 | 1003.1 |
| 20260508114049 | 48 | 338 | 1.0 | 6.0 | 0.00 | 0.00 | 0.02 | 82 | 1003.3 |
| 20260508113540 | 48 | 113 | 2.0 | 4.0 | 0.00 | 0.00 | 0.02 | 82 | 1003.2 |
| 20260508113029 | 47 | 338 | 1.0 | 7.0 | 0.00 | 0.00 | 0.02 | 83 | 1003.1 |
| 20260508112520 | 47 | 68 | 2.0 | 7.0 | 0.00 | 0.00 | 0.02 | 83 | 1003.0 |
| 20260508111459 | 47 | 68 | 2.0 | 6.0 | 0.00 | 0.00 | 0.02 | 83 | 1003.0 |
| 20260508110948 | 47 | 0 | 2.0 | 6.0 | 0.00 | 0.00 | 0.02 | 84 | 1003.1 |
| 20260508104908 | 48 | 0 | 2.0 | 6.0 | 0.00 | 0.00 | 0.02 | 84 | 1002.8 |
| 20260508104357 | 48 | 90 | 2.0 | 4.0 | 0.00 | 0.00 | 0.02 | 84 | 1002.9 |
| 20260508103847 | 48 | 68 | 1.0 | 4.0 | 0.00 | 0.00 | 0.02 | 83 | 1002.7 |
| 20260508103338 | 48 | 45 | 0.0 | 4.0 | 0.00 | 0.00 | 0.02 | 83 | 1002.4 |
| 20260508102828 | 48 | 45 | 2.0 | 6.0 | 0.00 | 0.00 | 0.02 | 82 | 1002.7 |
| 20260508102318 | 48 | 68 | 1.0 | 6.0 | 0.00 | 0.00 | 0.02 | 82 | 1002.6 |
| 20260508101256 | 48 | 293 | 2.0 | 4.0 | 0.00 | 0.00 | 0.02 | 83 | 1002.2 |
| 20260508100749 | 48 | 45 | 2.0 | 4.0 | 0.00 | 0.00 | 0.02 | 82 | 1002.3 |
| 20260508100237 | 48 | 45 | 2.0 | 4.0 | 0.00 | 0.00 | 0.02 | 82 | 1002.1 |
| 20260508095220 | 48 | 68 | 2.0 | 6.0 | 0.00 | 0.00 | 0.02 | 83 | 1001.7 |
| 20260508094156 | 47 | 23 | 2.0 | 9.0 | 0.00 | 0.00 | 0.02 | 89 | 1001.7 |
| 20260508093647 | 47 | 45 | 2.0 | 4.0 | 0.00 | 0.00 | 0.02 | 90 | 1001.9 |
| 20260508093138 | 47 | 23 | 2.0 | 4.0 | 0.00 | 0.00 | 0.02 | 89 | 1001.8 |
| 20260508092625 | 47 | 68 | 2.0 | 4.0 | 0.00 | 0.00 | 0.02 | 88 | 1001.7 |
| 20260508092116 | 47 | 45 | 2.0 | 4.0 | 0.00 | 0.00 | 0.02 | 87 | 1001.7 |
| 20260508091604 | 48 | 113 | 2.0 | 6.0 | 0.00 | 0.00 | 0.02 | 85 | 1001.7 |
| 20260508090546 | 48 | 90 | 2.0 | 7.0 | 0.00 | 0.00 | 0.02 | 84 | 1001.4 |
| 20260508085525 | 48 | 23 | 2.0 | 4.0 | 0.00 | 0.00 | 0.02 | 86 | 1001.2 |
| 20260508085015 | 47 | 0 | 1.0 | 6.0 | 0.00 | 0.00 | 0.02 | 86 | 1001.5 |
| 20260508084504 | 48 | 23 | 2.0 | 6.0 | 0.00 | 0.00 | 0.02 | 86 | 1001.5 |
| 20260508083954 | 48 | 68 | 1.0 | 6.0 | 0.00 | 0.00 | 0.02 | 86 | 1001.6 |
| 20260508083447 | 48 | 68 | 2.0 | 7.0 | 0.00 | 0.00 | 0.02 | 85 | 1001.5 |
| 20260508082934 | 48 | 68 | 1.0 | 7.0 | 0.00 | 0.00 | 0.02 | 85 | 1001.6 |
| 20260508082424 | 48 | 23 | 0.0 | 6.0 | 0.00 | 0.00 | 0.02 | 85 | 1001.5 |
| 20260508081403 | 47 | 68 | 1.0 | 6.0 | 0.00 | 0.00 | 0.02 | 87 | 1001.4 |
| 20260508080343 | 48 | 68 | 1.0 | 4.0 | 0.00 | 0.00 | 0.02 | 85 | 1001.6 |
| 20260508075834 | 48 | 68 | 1.0 | 6.0 | 0.00 | 0.00 | 0.02 | 85 | 1001.5 |
| 20260508075324 | 47 | 338 | 1.0 | 6.0 | 0.00 | 0.00 | 0.02 | 86 | 1001.4 |
| 20260508074813 | 47 | 23 | 1.0 | 6.0 | 0.00 | 0.00 | 0.02 | 87 | 1001.4 |
| 20260508074302 | 47 | 45 | 1.0 | 6.0 | 0.00 | 0.00 | 0.02 | 87 | 1001.6 |
| 20260508073752 | 47 | 68 | 1.0 | 6.0 | 0.00 | 0.00 | 0.02 | 87 | 1001.5 |
| 20260508073243 | 47 | 113 | 1.0 | 6.0 | 0.00 | 0.00 | 0.02 | 87 | 1001.4 |
| 20260508072734 | 47 | 0 | 2.0 | 4.0 | 0.00 | 0.00 | 0.02 | 87 | 1001.8 |
| 20260508072222 | 47 | 293 | 2.0 | 4.0 | 0.00 | 0.00 | 0.02 | 88 | 1001.6 |
| 20260508070651 | 47 | 45 | 1.0 | 4.0 | 0.00 | 0.00 | 0.02 | 90 | 1001.8 |
| 20260508070142 | 47 | 315 | 1.0 | 4.0 | 0.00 | 0.00 | 0.02 | 91 | 1002.1 |
| 20260508065631 | 47 | 90 | 2.0 | 4.0 | 0.00 | 0.00 | 0.02 | 91 | 1002.0 |
| 20260508065120 | 48 | 338 | 1.0 | 8.0 | 0.00 | 0.00 | 0.02 | 90 | 1002.2 |
| 20260508064611 | 48 | 68 | 2.0 | 8.0 | 0.00 | 0.00 | 0.02 | 88 | 1002.3 |
| 20260508063550 | 49 | 23 | 2.0 | 7.0 | 0.00 | 0.00 | 0.02 | 85 | 1002.2 |
| 20260508063041 | 49 | 68 | 2.0 | 7.0 | 0.00 | 0.00 | 0.02 | 85 | 1002.0 |
| 20260508062533 | 49 | 90 | 2.0 | 6.0 | 0.00 | 0.00 | 0.02 | 82 | 1002.0 |
| 20260508061513 | 50 | 338 | 1.0 | 4.0 | 0.00 | 0.00 | 0.02 | 82 | 1002.0 |
| 20260508061002 | 50 | 68 | 1.0 | 4.0 | 0.00 | 0.00 | 0.02 | 82 | 1002.0 |
| 20260508060449 | 49 | 23 | 0.0 | 0.0 | 0.00 | 0.00 | 0.02 | 82 | 1002.1 |
| 20260508060224 | 50 | 23 | 0.0 | 0.0 | 0.00 | 0.00 | 0.02 | 83 | 1002.1 |
| 20260508055647 | 50 | 45 | 2.0 | 4.0 | 0.00 | 0.20 | 0.02 | 84 | 1002.2 |
| 20260508054624 | 50 | 0 | 1.0 | 4.0 | 0.00 | 0.20 | 0.02 | 85 | 1002.0 |
| 20260508053603 | 50 | 90 | 1.0 | 4.0 | 0.00 | 0.20 | 0.02 | 85 | 1002.0 |
| 20260508052543 | 50 | 45 | 2.0 | 4.0 | 0.00 | 0.20 | 0.02 | 87 | 1002.0 |
| 20260508052034 | 50 | 23 | 1.0 | 4.0 | 0.00 | 0.20 | 0.02 | 88 | 1002.0 |
| 20260508051533 | 50 | 225 | 2.0 | 4.0 | 0.00 | 0.20 | 0.02 | 89 | 1002.1 |
| 20260508050503 | 50 | 68 | 1.0 | 4.0 | 0.01 | 0.20 | 0.02 | 90 | 1002.0 |
| 20260508045953 | 50 | 68 | 1.0 | 4.0 | 0.01 | 0.20 | 0.02 | 90 | 1002.0 |
| 20260508045443 | 50 | 45 | 2.0 | 4.0 | 0.01 | 0.20 | 0.02 | 89 | 1001.8 |
| 20260508044422 | 50 | 23 | 2.0 | 7.0 | 0.01 | 0.20 | 0.02 | 90 | 1001.7 |
| 20260508043914 | 50 | 0 | 2.0 | 4.0 | 0.01 | 0.20 | 0.02 | 92 | 1001.6 |
| 20260508043402 | 50 | 0 | 2.0 | 7.0 | 0.01 | 0.20 | 0.02 | 91 | 1001.7 |
| 20260508042852 | 50 | 113 | 3.0 | 7.0 | 0.01 | 0.20 | 0.02 | 92 | 1001.8 |
| 20260508042342 | 50 | 158 | 3.0 | 6.0 | 0.01 | 0.20 | 0.02 | 92 | 1001.8 |
| 20260508041833 | 50 | 68 | 1.0 | 4.0 | 0.01 | 0.20 | 0.02 | 93 | 1001.6 |
| 20260508041324 | 51 | 90 | 1.0 | 4.0 | 0.01 | 0.20 | 0.02 | 93 | 1001.5 |
| 20260508040811 | 51 | 90 | 1.0 | 4.0 | 0.01 | 0.20 | 0.02 | 92 | 1001.7 |
| 20260508040301 | 51 | 45 | 2.0 | 4.0 | 0.01 | 0.19 | 0.01 | 92 | 1001.4 |
| 20260508035751 | 51 | 45 | 2.0 | 6.0 | 0.01 | 0.19 | 0.01 | 91 | 1001.6 |
| 20260508035244 | 50 | 68 | 1.0 | 8.0 | 0.01 | 0.19 | 0.01 | 92 | 1001.6 |
| 20260508034731 | 50 | 113 | 2.0 | 8.0 | 0.01 | 0.19 | 0.01 | 93 | 1001.6 |
| 20260508034220 | 50 | 68 | 3.0 | 8.0 | 0.01 | 0.19 | 0.01 | 93 | 1001.7 |
| 20260508033711 | 50 | 45 | 2.0 | 4.0 | 0.01 | 0.19 | 0.01 | 94 | 1001.5 |
| 20260508033200 | 51 | 0 | 1.0 | 6.0 | 0.01 | 0.19 | 0.01 | 94 | 1001.7 |
| 20260508032139 | 51 | 68 | 2.0 | 9.0 | 0.01 | 0.19 | 0.01 | 94 | 1001.6 |
| 20260508031631 | 51 | 90 | 2.0 | 4.0 | 0.01 | 0.19 | 0.01 | 93 | 1001.3 |
| 20260508031120 | 51 | 68 | 1.0 | 4.0 | 0.01 | 0.19 | 0.01 | 93 | 1001.6 |
| 20260508030609 | 52 | 68 | 1.0 | 4.0 | 0.00 | 0.18 | 0.00 | 93 | 1001.4 |
| 20260508030105 | 52 | 90 | 1.0 | 2.0 | 0.01 | 0.18 | 0.00 | 93 | 1001.2 |
| 20260508025551 | 52 | 45 | 1.0 | 4.0 | 0.01 | 0.18 | 1.61 | 93 | 1001.5 |
| 20260508024530 | 52 | 68 | 2.0 | 6.0 | 0.02 | 0.18 | 1.61 | 93 | 1001.0 |
| 20260508023508 | 52 | 90 | 2.0 | 7.0 | 0.02 | 0.18 | 1.61 | 93 | 1001.1 |
| 20260508022959 | 52 | 45 | 2.0 | 4.0 | 0.02 | 0.18 | 1.61 | 93 | 1001.4 |
| 20260508022450 | 52 | 45 | 2.0 | 4.0 | 0.02 | 0.18 | 1.61 | 93 | 1001.2 |
| 20260508021940 | 52 | 315 | 2.0 | 4.0 | 0.02 | 0.18 | 1.61 | 93 | 1001.2 |
| 20260508021428 | 52 | 68 | 1.0 | 6.0 | 0.02 | 0.18 | 1.61 | 94 | 1001.1 |
| 20260508020919 | 52 | 45 | 1.0 | 6.0 | 0.02 | 0.18 | 1.61 | 93 | 1001.2 |
| 20260508015857 | 52 | 180 | 2.0 | 4.0 | 0.01 | 0.17 | 1.59 | 93 | 1001.2 |
| 20260508015347 | 52 | 135 | 2.0 | 6.0 | 0.01 | 0.17 | 1.59 | 92 | 1001.3 |
| 20260508014838 | 53 | 68 | 2.0 | 6.0 | 0.01 | 0.17 | 1.59 | 92 | 1001.3 |
| 20260508014332 | 53 | 45 | 1.0 | 6.0 | 0.00 | 0.15 | 1.58 | 91 | 1001.6 |
| 20260508013817 | 53 | 0 | 2.0 | 6.0 | 0.00 | 0.15 | 1.58 | 91 | 1001.5 |
| 20260508013309 | 53 | 45 | 2.0 | 7.0 | 0.00 | 0.15 | 1.58 | 92 | 1001.6 |
| 20260508012800 | 53 | 45 | 1.0 | 7.0 | 0.00 | 0.15 | 1.58 | 92 | 1001.3 |
| 20260508012247 | 53 | 45 | 2.0 | 4.0 | 0.00 | 0.15 | 1.58 | 92 | 1001.6 |
| 20260508011736 | 53 | 113 | 1.0 | 4.0 | 0.00 | 0.15 | 1.58 | 92 | 1001.8 |
| 20260508011226 | 53 | 23 | 2.0 | 4.0 | 0.00 | 0.15 | 1.58 | 93 | 1001.8 |
| 20260508010717 | 53 | 270 | 1.0 | 8.0 | 0.00 | 0.15 | 1.58 | 92 | 1002.0 |
| 20260508010207 | 53 | 113 | 1.0 | 8.0 | 0.00 | 0.15 | 1.58 | 92 | 1002.0 |
| 20260508005658 | 53 | 68 | 2.0 | 4.0 | 0.00 | 0.15 | 1.58 | 91 | 1001.8 |
| 20260508005146 | 54 | 248 | 1.0 | 4.0 | 0.00 | 0.15 | 1.58 | 90 | 1002.0 |
| 20260508004635 | 54 | 23 | 0.0 | 4.0 | 0.00 | 0.15 | 1.58 | 89 | 1001.4 |
| 20260508003105 | 55 | 68 | 2.0 | 8.0 | 0.00 | 0.15 | 1.58 | 84 | 1001.9 |
| 20260508001535 | 55 | 23 | 2.0 | 9.0 | 0.00 | 0.15 | 1.58 | 81 | 1002.0 |
| 20260508000006 | 56 | 0 | 2.0 | 8.0 | 0.00 | 0.15 | 1.58 | 80 | 1001.6 |
| 20260507234945 | 56 | 23 | 2.0 | 4.0 | 0.00 | 0.15 | 1.58 | 80 | 1001.8 |
| 20260507234433 | 56 | 113 | 1.0 | 4.0 | 0.00 | 0.15 | 1.58 | 81 | 1001.9 |
| 20260507233924 | 56 | 90 | 1.0 | 6.0 | 0.00 | 0.15 | 1.58 | 81 | 1001.8 |
| 20260507233413 | 56 | 45 | 1.0 | 6.0 | 0.00 | 0.15 | 1.58 | 81 | 1001.6 |
| 20260507232904 | 56 | 45 | 1.0 | 6.0 | 0.00 | 0.15 | 1.58 | 81 | 1001.8 |
| 20260507232353 | 56 | 270 | 2.0 | 6.0 | 0.00 | 0.15 | 1.58 | 82 | 1001.8 |
| 20260507231843 | 56 | 90 | 2.0 | 6.0 | 0.00 | 0.15 | 1.58 | 82 | 1001.6 |
| 20260507230823 | 56 | 23 | 2.0 | 7.0 | 0.00 | 0.15 | 1.58 | 83 | 1001.9 |
| 20260507230312 | 56 | 248 | 2.0 | 7.0 | 0.00 | 0.15 | 1.58 | 83 | 1001.9 |
| 20260507225803 | 56 | 113 | 1.0 | 4.0 | 0.00 | 0.15 | 1.58 | 84 | 1002.1 |
| 20260507224743 | 56 | 0 | 1.0 | 4.0 | 0.00 | 0.15 | 1.58 | 83 | 1002.4 |
| 20260507224233 | 57 | 45 | 2.0 | 4.0 | 0.00 | 0.15 | 1.58 | 82 | 1002.1 |
| 20260507223722 | 57 | 68 | 2.0 | 4.0 | 0.00 | 0.15 | 1.58 | 81 | 1002.2 |
| 20260507223212 | 57 | 23 | 2.0 | 6.0 | 0.00 | 0.15 | 1.58 | 80 | 1002.0 |
| 20260507222702 | 57 | 23 | 1.0 | 6.0 | 0.00 | 0.15 | 1.58 | 79 | 1002.0 |
| 20260507222152 | 57 | 23 | 1.0 | 4.0 | 0.00 | 0.15 | 1.58 | 78 | 1001.9 |
| 20260507221642 | 57 | 0 | 1.0 | 4.0 | 0.00 | 0.15 | 1.58 | 78 | 1001.9 |
| 20260507221134 | 57 | 45 | 1.0 | 4.0 | 0.00 | 0.15 | 1.58 | 77 | 1001.7 |
| 20260507220621 | 57 | 45 | 1.0 | 4.0 | 0.00 | 0.15 | 1.58 | 77 | 1001.8 |
| 20260507215601 | 57 | 68 | 1.0 | 4.0 | 0.00 | 0.15 | 1.58 | 77 | 1001.7 |
| 20260507215050 | 58 | 90 | 1.0 | 6.0 | 0.00 | 0.15 | 1.58 | 76 | 1001.8 |
| 20260507214540 | 58 | 90 | 1.0 | 6.0 | 0.00 | 0.15 | 1.58 | 76 | 1001.2 |
| 20260507214030 | 58 | 45 | 1.0 | 4.0 | 0.00 | 0.15 | 1.58 | 76 | 1001.3 |
| 20260507213010 | 58 | 68 | 1.0 | 4.0 | 0.00 | 0.15 | 1.58 | 75 | 1001.4 |
| 20260507211950 | 58 | 68 | 2.0 | 4.0 | 0.00 | 0.15 | 1.58 | 74 | 1001.7 |
| 20260507211440 | 58 | 45 | 1.0 | 4.0 | 0.00 | 0.15 | 1.58 | 74 | 1001.7 |
| 20260507210929 | 58 | 68 | 2.0 | 4.0 | 0.00 | 0.15 | 1.58 | 75 | 1001.3 |
| 20260507205909 | 58 | 293 | 2.0 | 6.0 | 0.00 | 0.15 | 1.58 | 74 | 1001.3 |
| 20260507205359 | 58 | 68 | 2.0 | 6.0 | 0.00 | 0.15 | 1.58 | 73 | 1001.5 |
| 20260507204849 | 59 | 0 | 1.0 | 2.0 | 0.00 | 0.15 | 1.58 | 73 | 1001.7 |
| 20260507204338 | 59 | 90 | 1.0 | 4.0 | 0.00 | 0.15 | 1.58 | 73 | 1001.4 |
| 20260507203319 | 59 | 23 | 1.0 | 4.0 | 0.00 | 0.15 | 1.58 | 72 | 1001.6 |
| 20260507202809 | 59 | 68 | 2.0 | 4.0 | 0.00 | 0.15 | 1.58 | 71 | 1001.3 |
| 20260507202258 | 59 | 293 | 1.0 | 6.0 | 0.00 | 0.15 | 1.58 | 71 | 1001.3 |
| 20260507201747 | 59 | 45 | 2.0 | 7.0 | 0.00 | 0.15 | 1.58 | 70 | 1001.2 |
| 20260507201239 | 59 | 248 | 2.0 | 7.0 | 0.00 | 0.15 | 1.58 | 71 | 1001.3 |
| 20260507200728 | 60 | 0 | 2.0 | 6.0 | 0.00 | 0.15 | 1.58 | 71 | 1000.9 |
| 20260507200217 | 59 | 90 | 1.0 | 6.0 | 0.00 | 0.15 | 1.58 | 71 | 1000.4 |
| 20260507195707 | 59 | 338 | 1.0 | 4.0 | 0.00 | 0.15 | 1.58 | 71 | 999.9 |
| 20260507195157 | 59 | 45 | 1.0 | 4.0 | 0.00 | 0.15 | 1.58 | 71 | 999.9 |
| 20260507194657 | 59 | 338 | 1.0 | 4.0 | 0.00 | 0.15 | 1.58 | 72 | 999.8 |
| 20260507194137 | 59 | 45 | 2.0 | 4.0 | 0.00 | 0.15 | 1.58 | 72 | 1000.1 |
| 20260507193628 | 60 | 90 | 2.0 | 4.0 | 0.00 | 0.15 | 1.58 | 71 | 999.8 |
| 20260507192607 | 60 | 90 | 2.0 | 6.0 | 0.00 | 0.15 | 1.58 | 72 | 999.8 |
| 20260507192056 | 60 | 23 | 2.0 | 4.0 | 0.00 | 0.15 | 1.58 | 71 | 999.8 |
| 20260507191547 | 60 | 45 | 1.0 | 4.0 | 0.00 | 0.15 | 1.58 | 71 | 1000.3 |
| 20260507191039 | 60 | 45 | 1.0 | 2.0 | 0.00 | 0.15 | 1.58 | 72 | 1000.7 |
| 20260507190527 | 60 | 0 | 2.0 | 4.0 | 0.00 | 0.15 | 1.58 | 72 | 1001.1 |
| 20260507190017 | 60 | 23 | 1.0 | 4.0 | 0.00 | 0.15 | 1.58 | 72 | 1001.5 |
| 20260507184955 | 60 | 90 | 2.0 | 7.0 | 0.00 | 0.15 | 1.58 | 73 | 1001.3 |
| 20260507184448 | 60 | 23 | 2.0 | 7.0 | 0.00 | 0.15 | 1.58 | 73 | 1001.4 |
| 20260507183937 | 60 | 23 | 1.0 | 4.0 | 0.00 | 0.15 | 1.58 | 73 | 1001.7 |
| 20260507183427 | 60 | 90 | 1.0 | 4.0 | 0.00 | 0.15 | 1.58 | 73 | 1001.6 |
| 20260507182914 | 60 | 0 | 2.0 | 4.0 | 0.00 | 0.15 | 1.58 | 74 | 1002.1 |
| 20260507182406 | 60 | 315 | 2.0 | 6.0 | 0.00 | 0.15 | 1.58 | 73 | 1002.3 |
| 20260507181851 | 60 | 90 | 1.0 | 8.0 | 0.00 | 0.15 | 1.58 | 73 | 1002.7 |
| 20260507181340 | 60 | 68 | 1.0 | 8.0 | 0.00 | 0.15 | 1.58 | 73 | 1003.1 |
| 20260507180833 | 60 | 45 | 1.0 | 4.0 | 0.00 | 0.15 | 1.58 | 73 | 1003.2 |
| 20260507180333 | 60 | 45 | 2.0 | 4.0 | 0.00 | 0.15 | 1.58 | 74 | 1002.9 |
| 20260507175813 | 60 | 68 | 0.0 | 4.0 | 0.00 | 0.15 | 1.58 | 75 | 1003.0 |
| 20260507174245 | 60 | 68 | 0.0 | 4.0 | 0.00 | 0.15 | 1.58 | 76 | 1002.0 |
| 20260507173734 | 60 | 0 | 1.0 | 2.0 | 0.00 | 0.15 | 1.58 | 77 | 1001.6 |
| 20260507173224 | 59 | 68 | 1.0 | 2.0 | 0.00 | 0.15 | 1.58 | 78 | 1001.1 |
| 20260507172712 | 59 | 90 | 1.0 | 2.0 | 0.00 | 0.15 | 1.58 | 78 | 1000.8 |
| 20260507172202 | 59 | 68 | 1.0 | 2.0 | 0.00 | 0.15 | 1.58 | 77 | 1000.8 |
| 20260507171653 | 60 | 68 | 1.0 | 2.0 | 0.00 | 0.15 | 1.58 | 77 | 1001.3 |
| 20260507171143 | 60 | 23 | 0.0 | 4.0 | 0.00 | 0.15 | 1.58 | 77 | 1001.8 |
| 20260507170632 | 60 | 45 | 1.0 | 4.0 | 0.00 | 0.15 | 1.58 | 76 | 1001.6 |
| 20260507170124 | 60 | 68 | 1.0 | 2.0 | 0.00 | 0.15 | 1.58 | 75 | 1002.4 |
| 20260507165614 | 60 | 0 | 1.0 | 2.0 | 0.00 | 0.15 | 1.58 | 75 | 1002.5 |
| 20260507165102 | 60 | 68 | 1.0 | 4.0 | 0.00 | 0.15 | 1.58 | 75 | 1002.4 |
| 20260507164552 | 60 | 45 | 1.0 | 6.0 | 0.00 | 0.15 | 1.58 | 76 | 1003.0 |
| 20260507164041 | 61 | 68 | 2.0 | 6.0 | 0.00 | 0.15 | 1.58 | 76 | 1003.5 |
| 20260507163532 | 61 | 113 | 1.0 | 4.0 | 0.00 | 0.15 | 1.58 | 77 | 1003.2 |
| 20260507162510 | 61 | 68 | 0.0 | 4.0 | 0.00 | 0.15 | 1.58 | 77 | 1002.5 |
| 20260507162001 | 61 | 68 | 1.0 | 4.0 | 0.00 | 0.15 | 1.58 | 78 | 1001.8 |
| 20260507161451 | 61 | 338 | 0.0 | 4.0 | 0.00 | 0.15 | 1.58 | 78 | 1001.3 |
| 20260507160940 | 61 | 23 | 2.0 | 4.0 | 0.00 | 0.15 | 1.58 | 78 | 1001.3 |
| 20260507160432 | 61 | 68 | 1.0 | 4.0 | 0.00 | 0.15 | 1.58 | 78 | 1001.1 |
| 20260507155410 | 61 | 68 | 1.0 | 4.0 | 0.00 | 0.15 | 1.58 | 80 | 1001.4 |
| 20260507154900 | 61 | 90 | 0.0 | 4.0 | 0.00 | 0.15 | 1.58 | 81 | 1001.4 |
| 20260507154349 | 61 | 68 | 1.0 | 4.0 | 0.00 | 0.15 | 1.58 | 81 | 1001.9 |
| 20260507153840 | 61 | 68 | 1.0 | 4.0 | 0.00 | 0.15 | 1.58 | 82 | 1001.9 |
| 20260507152819 | 61 | 45 | 2.0 | 6.0 | 0.00 | 0.15 | 1.58 | 83 | 1001.5 |
| 20260507151759 | 61 | 45 | 0.0 | 4.0 | 0.00 | 0.15 | 1.58 | 84 | 1001.5 |
| 20260507150739 | 62 | 90 | 1.0 | 4.0 | 0.00 | 0.15 | 1.58 | 84 | 1002.2 |
| 20260507150229 | 62 | 23 | 1.0 | 4.0 | 0.00 | 0.15 | 1.58 | 84 | 1002.2 |
| 20260507145720 | 62 | 68 | 2.0 | 4.0 | 0.00 | 0.15 | 1.58 | 84 | 1002.5 |
| 20260507145209 | 63 | 45 | 2.0 | 4.0 | 0.00 | 0.15 | 1.58 | 84 | 1002.5 |
| 20260507144148 | 62 | 45 | 1.0 | 2.0 | 0.00 | 0.15 | 1.58 | 85 | 1002.4 |
| 20260507143640 | 62 | 90 | 1.0 | 2.0 | 0.00 | 0.15 | 1.58 | 85 | 1001.2 |
| 20260507143129 | 62 | 90 | 1.0 | 2.0 | 0.00 | 0.15 | 1.58 | 85 | 1001.5 |
| 20260507142618 | 62 | 113 | 0.0 | 2.0 | 0.00 | 0.15 | 1.58 | 85 | 1001.5 |
| 20260507142107 | 62 | 45 | 1.0 | 2.0 | 0.00 | 0.15 | 1.58 | 84 | 1001.1 |
| 20260507141558 | 62 | 23 | 2.0 | 4.0 | 0.00 | 0.15 | 1.58 | 84 | 1001.2 |
| 20260507141047 | 63 | 45 | 1.0 | 4.0 | 0.00 | 0.15 | 1.58 | 84 | 1001.1 |
| 20260507140544 | 63 | 68 | 1.0 | 4.0 | 0.00 | 0.15 | 1.58 | 84 | 1001.8 |
| 20260507140027 | 63 | 338 | 1.0 | 4.0 | 0.00 | 0.15 | 1.58 | 84 | 1001.9 |